Main page
METAR-TAF:

METAR-TAF

Airports :

Gibraltar International Airport

Gibraltar, Gibraltar

latitude: 36-09N, longitude: 005-21W, elevation: 5 m

Current weather observation

The report was made 35 minutes ago, at 18:50 UTC
Wind 10 kt from the West
Temperature 21°C
Humidity 73%
Pressure 1014 hPa
Visibility 10 km or more
Few clouds at a height of 2500 ft

METAR: LXGB 171850Z 27010KT 9999 FEW025 21/16 Q1014 NOSIG

Time: 21:25 (19:25 UTC)

Forecast

The report was made 3 hours and 9 minutes ago, at 16:16 UTC
Forecast valid from 17 at 18 UTC to 17 at 22 UTC
Wind 8 kt from the South/Southwest
Visibility 10 km or more
Few clouds at a height of 3500 ft
Probability 30% :
Temporary
from 17 at 20 UTC to 17 at 22 UTC
Scattered clouds at a height of 2400 ft

TAF: LXGB 171616Z 1718/1722 21008KT 9999 FEW035 PROB30 TEMPO 1720/1722 SCT024

Weather observations and forecasts of more than 4000 airports (METAR and TAF reports).

The available stations are represented by yellow and red dots on the map.

Hover mouse over dot to see the name of the station.

Then click to see weather observations and forecasts.

To change the map : click on the green buttons with a black cross to zoom in, on the green button with a dash to zoom out, or on the green arrows for adjacent maps.


METAR-TAF: